Location: Jarosław
(50.0191°N, 22.6835°E)
Time: 00:04:19
(UTC+01:00)

ISS - Pass Details

Date: 28 January 2019
Orbit: 403 x 411 km, 51.6° (Epoch: 20 February)

Event Time Altitude Azimuth Distance (km) Brightness Sun altitude
Rises 19:08:14 0° 273° (W) 2,339 1.3 -27.5°
Reaches altitude 10° 19:10:20 10° 277° (W) 1,479 0.0 -27.9°
Enters shadow 19:11:28 20° 281° (W) 1,033 -1.0 -28.0°
